Location: Dehesa de la Cepeda
(40.6574°N, 4.3013°W)
Time: 10:47:15
(UTC+00:00)

Vanguard 2 Rocket - Pass Details

Date: 24 October 2021
Orbit: 555 x 3324 km, 32.9° (Epoch: 08 December)

Event Time Altitude Azimuth Distance (km) Brightness Sun altitude
Exits shadow 04:38:26 - 221° (SW) 6,200 10.7 -23.4°
Reaches altitude 10° 04:41:06 10° 217° (SW) 5,559 10.5 -22.9°
Maximum altitude 04:54:08 34° 160° (SSE) 2,925 9.6 -20.4°
Drops below altitude 10° 05:02:24 10° 100° (E) 3,522 11.1 -18.8°
Sets 05:05:06 0° 90° (E) 4,180 12.0 -18.3°
